This demonstration page uses our WeatherBlox Daily Observations layout. Learn more.

Left ArrowRight Arrow

39.95233, -75.16379

Hourly Observations for January 25, 2022

Temp ( °F °C ) Dew Point ( °F °C ) Humidity (%) Winds ( mph kmh ) Pressure ( in mb ) Visibility ( mi km ) Precip ( " mm )
12:54 am 00:54 Cloudy 39 3.9 28 -2.2 65 65 SSW 9 15 29.82 1010 10 16 0.00 0.00
1:54 am 01:54 Cloudy 38 3.3 28 -2.2 68 68 SSW 9 15 29.83 1010 10 16 0.00 0.00
2:54 am 02:54 Cloudy 38 3.3 28 -2.2 68 68 SSW 5 7 29.83 1010 10 16 0.00 0.00
3:54 am 03:54 Cloudy 38 3.3 28 -2.2 68 68 VRB 6 9 29.84 1011 10 16 0.00 0.00
4:54 am 04:54 Cloudy 36 2.2 28 -2.2 73 73 Calm 29.84 1010 10 16 0.00 0.00
5:54 am 05:54 Cloudy 35 1.7 28 -2.2 76 76 S 3 6 29.84 1011 10 16 0.00 0.00
6:54 am 06:54 Cloudy 35 1.7 28 -2.2 76 76 Calm 29.88 1012 10 16 0.00 0.00
7:54 am 07:54 Cloudy 37 2.8 29 -1.7 73 73 Calm 29.90 1013 10 16 0.00 0.00
8:54 am 08:54 Cloudy 38 3.3 29 -1.7 70 70 S 5 7 29.94 1014 9 14 0.00 0.00
9:54 am 09:54 Cloudy 39 3.9 30 -1.1 70 70 W 5 7 29.97 1015 10 16 0.00 0.00
10:54 am 10:54 Cloudy 39 3.9 30 -1.1 70 70 Calm 29.99 1016 10 16 0.00 0.00
11:54 am 11:54 Cloudy 41 5 29 -1.7 62 62 N 5 7 29.98 1015 10 16 0.00 0.00
12:54 pm 12:54 Cloudy 44 6.7 28 -2.2 53 53 N 9 15 29.97 1015 10 16 0.00 0.00
1:54 pm 13:54 Mostly Cloudy 44 6.7 28 -2.2 53 53 NNW 6 9 29.97 1015 10 16 0.00 0.00
2:54 pm 14:54 Mostly Cloudy 45 7.2 26 -3.3 48 48 NW 12 19 29.99 1016 10 16 0.00 0.00
3:54 pm 15:54 Mostly Cloudy 43 6.1 23 -5 45 45 NW 14 22 30.01 1016 10 16 0.00 0.00
4:54 pm 16:54 Mostly Cloudy 41 5 19 -7.2 41 41 WNW 13 20 30.04 1017 10 16 0.00 0.00
5:54 pm 17:54 Partly Cloudy 39 3.9 18 -7.8 43 43 WNW 10 17 30.07 1018 10 16 0.00 0.00
6:54 pm 18:54 Partly Cloudy 36 2.2 17 -8.3 46 46 NNW 8 13 30.11 1020 10 16 0.00 0.00
7:54 pm 19:54 Partly Cloudy 35 1.7 16 -8.9 46 46 NW 7 11 30.14 1021 10 16 0.00 0.00
8:54 pm 20:54 Partly Cloudy 34 1.1 14 -10 44 44 NW 7 11 30.16 1021 10 16 0.00 0.00
9:54 pm 21:54 Mostly Clear 32 0 13 -10.6 45 45 NW 9 15 30.17 1022 10 16 0.00 0.00
10:54 pm 22:54 Partly Cloudy 31 -0.6 13 -10.6 47 47 NNW 12 19 30.18 1022 10 16 0.00 0.00
11:54 pm 23:54 Mostly Cloudy 30 -1.1 12 -11.1 47 47 NNW 10 17 30.18 1022 10 16 0.00 0.00

Powered by AerisWeather